| time (UTC) | temp F | wind direction | speed MPH | gust MPH | rain 1hr in | rain 24hr in | rain mn in | humidity % | barometer mb |
| 20260505153146 | 61 | 351 | 4.0 | 7.0 | 0.00 | 0.01 | 0.00 | 53 | 679.8 |
| 20260505152026 | 61 | 322 | 4.0 | 9.0 | 0.00 | 0.01 | 0.00 | 53 | 679.8 |
| 20260505151026 | 63 | 325 | 4.0 | 7.0 | 0.00 | 0.01 | 0.00 | 54 | 679.8 |
| 20260505125028 | 52 | 334 | 3.0 | 5.0 | 0.00 | 0.01 | 0.00 | 76 | 679.5 |
| 20260505124028 | 52 | 327 | 4.0 | 5.0 | 0.00 | 0.01 | 0.00 | 76 | 679.5 |
| 20260505123028 | 51 | 325 | 3.0 | 5.0 | 0.00 | 0.01 | 0.00 | 76 | 679.5 |
| 20260505122044 | 50 | 322 | 4.0 | 6.0 | 0.00 | 0.01 | 0.00 | 76 | 679.5 |
| 20260505121049 | 50 | 343 | 4.0 | 6.0 | 0.00 | 0.01 | 0.00 | 76 | 679.5 |
| 20260505120029 | 51 | 329 | 5.0 | 8.0 | 0.00 | 0.01 | 0.00 | 76 | 679.5 |
| 20260505115029 | 52 | 323 | 4.0 | 7.0 | 0.00 | 0.01 | 0.00 | 76 | 679.5 |
| 20260505114044 | 53 | 330 | 2.0 | 4.0 | 0.00 | 0.01 | 0.00 | 76 | 679.5 |
| 20260505113029 | 54 | 318 | 3.0 | 7.0 | 0.00 | 0.01 | 0.00 | 76 | 679.5 |
| 20260505112050 | 55 | 328 | 4.0 | 6.0 | 0.00 | 0.01 | 0.00 | 76 | 679.6 |
| 20260505111029 | 56 | 318 | 4.0 | 8.0 | 0.00 | 0.01 | 0.00 | 80 | 679.6 |
| 20260505102030 | 57 | 246 | 3.0 | 8.0 | 0.00 | 0.01 | 0.00 | 83 | 679.6 |
| 20260505101051 | 57 | 259 | 2.0 | 5.0 | 0.00 | 0.01 | 0.00 | 82 | 679.6 |
| 20260505100030 | 57 | 250 | 2.0 | 3.0 | 0.00 | 0.01 | 0.00 | 76 | 679.6 |
| 20260505095031 | 57 | 267 | 2.0 | 6.0 | 0.00 | 0.01 | 0.00 | 76 | 679.6 |
| 20260505094031 | 57 | 267 | 2.0 | 5.0 | 0.00 | 0.01 | 0.00 | 76 | 679.6 |
| 20260505093031 | 58 | 243 | 2.0 | 6.0 | 0.00 | 0.01 | 0.00 | 76 | 679.6 |
| 20260505092052 | 58 | 253 | 2.0 | 4.0 | 0.00 | 0.01 | 0.00 | 76 | 679.6 |
| 20260505091032 | 58 | 252 | 2.0 | 4.0 | 0.00 | 0.01 | 0.00 | 76 | 679.6 |
| 20260505090031 | 58 | 264 | 2.0 | 5.0 | 0.00 | 0.01 | 0.00 | 76 | 679.7 |
| 20260505085032 | 59 | 268 | 2.0 | 5.0 | 0.00 | 0.01 | 0.00 | 76 | 679.6 |
| 20260505084052 | 59 | 258 | 1.0 | 4.0 | 0.00 | 0.01 | 0.00 | 76 | 679.7 |
| 20260505083032 | 59 | 231 | 3.0 | 6.0 | 0.00 | 0.01 | 0.00 | 76 | 679.7 |
| 20260505082047 | 59 | 231 | 2.0 | 5.0 | 0.00 | 0.01 | 0.00 | 76 | 679.7 |
| 20260505081032 | 59 | 254 | 3.0 | 5.0 | 0.00 | 0.01 | 0.00 | 76 | 679.7 |
| 20260505080017 | 59 | 248 | 3.0 | 6.0 | 0.00 | 0.01 | 0.00 | 74 | 679.7 |
| 20260505075018 | 59 | 279 | 1.0 | 5.0 | 0.00 | 0.01 | 0.00 | 74 | 679.7 |
| 20260505074018 | 60 | 232 | 3.0 | 6.0 | 0.00 | 0.01 | 0.00 | 74 | 679.7 |
| 20260505073018 | 60 | 233 | 4.0 | 7.0 | 0.00 | 0.01 | 0.00 | 74 | 679.7 |
| 20260505072018 | 60 | 233 | 3.0 | 5.0 | 0.00 | 0.01 | 0.00 | 74 | 679.7 |
| 20260505071018 | 60 | 235 | 3.0 | 7.0 | 0.00 | 0.01 | 0.00 | 74 | 679.7 |
| 20260505070018 | 60 | 232 | 5.0 | 7.0 | 0.00 | 0.01 | 0.00 | 74 | 679.7 |
| 20260505065018 | 60 | 239 | 3.0 | 6.0 | 0.00 | 0.01 | 0.00 | 76 | 679.7 |
| 20260505064053 | 60 | 245 | 2.0 | 8.0 | 0.00 | 0.01 | 0.00 | 76 | 679.7 |
| 20260505063054 | 60 | 260 | 3.0 | 8.0 | 0.00 | 0.01 | 0.00 | 76 | 679.7 |
| 20260505062019 | 59 | 233 | 3.0 | 5.0 | 0.00 | 0.01 | 0.00 | 76 | 679.7 |
| 20260505061039 | 59 | 231 | 5.0 | 9.0 | 0.00 | 0.01 | 0.00 | 76 | 679.7 |
| 20260505060034 | 60 | 235 | 4.0 | 9.0 | 0.00 | 0.01 | 0.00 | 76 | 679.7 |
| 20260505055019 | 59 | 226 | 7.0 | 10.0 | 0.00 | 0.01 | 0.00 | 76 | 679.7 |
| 20260505054102 | 59 | 222 | 6.0 | 9.0 | 0.00 | 0.01 | 0.00 | 76 | 679.7 |
| 20260505053034 | 59 | 227 | 7.0 | 10.0 | 0.00 | 0.01 | 0.00 | 76 | 679.7 |
| 20260505052019 | 60 | 223 | 5.0 | 8.0 | 0.00 | 0.01 | 0.00 | 76 | 679.7 |
| 20260505051020 | 60 | 228 | 6.0 | 10.0 | 0.00 | 0.01 | 0.00 | 75 | 679.7 |
| 20260505041020 | 60 | 219 | 5.0 | 9.0 | 0.00 | 0.01 | 0.00 | 76 | 679.7 |
| 20260505040021 | 60 | 221 | 5.0 | 8.0 | 0.00 | 0.01 | 0.00 | 74 | 679.7 |
| 20260505035101 | 60 | 228 | 5.0 | 8.0 | 0.00 | 0.01 | 0.01 | 74 | 679.7 |
| 20260505034021 | 60 | 228 | 4.0 | 9.0 | 0.00 | 0.01 | 0.01 | 73 | 679.7 |
| 20260505033021 | 60 | 232 | 4.0 | 7.0 | 0.00 | 0.01 | 0.01 | 73 | 679.7 |
| 20260505032021 | 60 | 225 | 6.0 | 11.0 | 0.00 | 0.01 | 0.01 | 72 | 679.7 |
| 20260505031021 | 61 | 228 | 8.0 | 14.0 | 0.00 | 0.01 | 0.01 | 73 | 679.8 |
| 20260505030021 | 61 | 212 | 6.0 | 10.0 | 0.00 | 0.01 | 0.01 | 72 | 679.8 |
| 20260505025021 | 61 | 234 | 5.0 | 8.0 | 0.01 | 0.01 | 0.01 | 73 | 679.8 |
| 20260505024022 | 61 | 222 | 5.0 | 9.0 | 0.01 | 0.01 | 0.01 | 74 | 679.8 |
| 20260505023042 | 61 | 226 | 5.0 | 9.0 | 0.01 | 0.01 | 0.01 | 76 | 679.8 |
| 20260505022022 | 61 | 242 | 4.0 | 7.0 | 0.01 | 0.01 | 0.01 | 76 | 679.8 |
| 20260505021022 | 62 | 241 | 6.0 | 12.0 | 0.01 | 0.01 | 0.01 | 74 | 679.8 |
| 20260505020022 | 62 | 242 | 4.0 | 7.0 | 0.01 | 0.01 | 0.01 | 73 | 679.8 |
| 20260505015023 | 62 | 219 | 7.0 | 10.0 | 0.00 | 0.00 | 0.00 | 69 | 679.8 |
| 20260505014023 | 62 | 219 | 6.0 | 10.0 | 0.00 | 0.00 | 0.00 | 69 | 679.8 |
| 20260505013023 | 62 | 204 | 7.0 | 10.0 | 0.00 | 0.00 | 0.00 | 68 | 679.8 |
| 20260505012043 | 63 | 205 | 5.0 | 7.0 | 0.00 | 0.00 | 0.00 | 67 | 679.8 |
| 20260505011023 | 63 | 191 | 7.0 | 11.0 | 0.00 | 0.00 | 0.00 | 66 | 679.8 |
| 20260505010023 | 64 | 195 | 6.0 | 9.0 | 0.00 | 0.00 | 0.00 | 64 | 679.9 |
| 20260505005023 | 65 | 206 | 6.0 | 10.0 | 0.00 | 0.00 | 0.00 | 61 | 679.9 |
| 20260505004043 | 66 | 215 | 5.0 | 9.0 | 0.00 | 0.00 | 0.00 | 61 | 679.9 |
| 20260505003024 | 66 | 205 | 6.0 | 8.0 | 0.00 | 0.00 | 0.00 | 60 | 679.9 |
| 20260505002024 | 67 | 203 | 7.0 | 10.0 | 0.00 | 0.00 | 0.00 | 59 | 679.9 |
| 20260505001024 | 67 | 206 | 7.0 | 9.0 | 0.00 | 0.00 | 0.00 | 57 | 679.9 |
| 20260505000024 | 68 | 221 | 5.0 | 9.0 | 0.00 | 0.00 | 0.00 | 56 | 679.9 |
| 20260504235044 | 68 | 220 | 5.0 | 8.0 | 0.00 | 0.00 | 0.00 | 55 | 679.9 |
| 20260504234024 | 69 | 221 | 6.0 | 9.0 | 0.00 | 0.00 | 0.00 | 53 | 680.0 |
| 20260504233024 | 69 | 224 | 6.0 | 9.0 | 0.00 | 0.00 | 0.00 | 52 | 680.0 |
| 20260504232024 | 70 | 229 | 7.0 | 12.0 | 0.00 | 0.00 | 0.00 | 51 | 680.0 |
| 20260504231040 | 70 | 226 | 6.0 | 10.0 | 0.00 | 0.00 | 0.00 | 50 | 680.0 |
| 20260504230039 | 70 | 235 | 5.0 | 9.0 | 0.00 | 0.00 | 0.00 | 49 | 680.0 |
| 20260504225025 | 71 | 221 | 6.0 | 9.0 | 0.00 | 0.00 | 0.00 | 48 | 680.0 |
| 20260504224025 | 71 | 237 | 6.0 | 11.0 | 0.00 | 0.00 | 0.00 | 48 | 680.0 |
| 20260504223025 | 71 | 223 | 7.0 | 10.0 | 0.00 | 0.00 | 0.00 | 47 | 680.0 |
| 20260504222106 | 71 | 236 | 9.0 | 13.0 | 0.00 | 0.00 | 0.00 | 45 | 680.0 |
| 20260504221025 | 71 | 233 | 7.0 | 12.0 | 0.00 | 0.00 | 0.00 | 45 | 680.0 |
| 20260504220026 | 71 | 229 | 8.0 | 12.0 | 0.00 | 0.00 | 0.00 | 44 | 680.0 |
| 20260504215106 | 71 | 229 | 7.0 | 12.0 | 0.00 | 0.00 | 0.00 | 43 | 680.0 |
| 20260504214025 | 72 | 226 | 10.0 | 16.0 | 0.00 | 0.00 | 0.00 | 42 | 680.0 |
| 20260504213026 | 72 | 237 | 7.0 | 9.0 | 0.00 | 0.00 | 0.00 | 42 | 680.0 |
| 20260504212026 | 72 | 227 | 10.0 | 18.0 | 0.00 | 0.00 | 0.00 | 42 | 680.0 |
| 20260504211047 | 73 | 229 | 7.0 | 14.0 | 0.00 | 0.00 | 0.00 | 43 | 680.0 |
| 20260504210027 | 74 | 222 | 7.0 | 13.0 | 0.00 | 0.00 | 0.00 | 43 | 680.1 |
| 20260504205047 | 74 | 238 | 7.0 | 14.0 | 0.00 | 0.00 | 0.00 | 42 | 680.1 |
| 20260504204027 | 74 | 230 | 8.0 | 13.0 | 0.00 | 0.00 | 0.00 | 42 | 680.1 |
| 20260504203027 | 74 | 238 | 6.0 | 11.0 | 0.00 | 0.00 | 0.00 | 45 | 680.1 |
| 20260504202027 | 73 | 233 | 6.0 | 12.0 | 0.00 | 0.00 | 0.00 | 45 | 680.0 |
| 20260504201047 | 73 | 227 | 9.0 | 14.0 | 0.00 | 0.00 | 0.00 | 46 | 680.0 |
| 20260504200027 | 73 | 222 | 9.0 | 17.0 | 0.00 | 0.00 | 0.00 | 46 | 680.1 |
| 20260504195027 | 73 | 209 | 8.0 | 13.0 | 0.00 | 0.00 | 0.00 | 47 | 680.0 |
| 20260504194027 | 73 | 214 | 8.0 | 11.0 | 0.00 | 0.00 | 0.00 | 47 | 680.0 |
| 20260504193048 | 73 | 223 | 8.0 | 11.0 | 0.00 | 0.00 | 0.00 | 46 | 680.0 |
| 20260504192028 | 73 | 221 | 8.0 | 11.0 | 0.00 | 0.00 | 0.00 | 46 | 680.0 |
| 20260504191028 | 73 | 220 | 7.0 | 11.0 | 0.00 | 0.00 | 0.00 | 46 | 680.0 |
| 20260504190028 | 73 | 203 | 8.0 | 12.0 | 0.00 | 0.00 | 0.00 | 47 | 680.0 |
| 20260504185028 | 73 | 219 | 5.0 | 7.0 | 0.00 | 0.00 | 0.00 | 47 | 680.0 |
| 20260504184028 | 73 | 230 | 7.0 | 10.0 | 0.00 | 0.00 | 0.00 | 47 | 680.0 |
| 20260504183017 | 73 | 221 | 5.0 | 10.0 | 0.00 | 0.00 | 0.00 | 47 | 680.0 |
| 20260504182017 | 73 | 212 | 8.0 | 10.0 | 0.00 | 0.00 | 0.00 | 47 | 680.1 |
| 20260504181018 | 73 | 212 | 9.0 | 16.0 | 0.00 | 0.00 | 0.00 | 47 | 680.1 |
| 20260504180018 | 74 | 229 | 7.0 | 10.0 | 0.00 | 0.00 | 0.00 | 46 | 680.1 |
| 20260504175018 | 75 | 216 | 8.0 | 14.0 | 0.00 | 0.00 | 0.00 | 44 | 680.1 |
| 20260504174119 | 75 | 225 | 7.0 | 10.0 | 0.00 | 0.00 | 0.00 | 43 | 680.1 |
| 20260504173018 | 75 | 218 | 7.0 | 11.0 | 0.00 | 0.00 | 0.00 | 42 | 680.1 |
| 20260504172038 | 76 | 231 | 9.0 | 13.0 | 0.00 | 0.00 | 0.00 | 42 | 680.1 |
| 20260504171019 | 75 | 241 | 5.0 | 9.0 | 0.00 | 0.00 | 0.00 | 42 | 680.1 |